| time (UTC) | temp F | wind direction | speed MPH | gust MPH | rain 1hr in | rain 24hr in | rain mn in | humidity % | barometer mb |
| 20260505114001 | 54 | 267 | 5.0 | 15.0 | 0.00 | 0.00 | 0.00 | 59 | 1020.1 |
| 20260505113000 | 54 | 254 | 4.0 | 11.0 | 0.00 | 0.00 | 0.00 | 60 | 1020.9 |
| 20260505112001 | 54 | 258 | 4.0 | 13.0 | 0.00 | 0.00 | 0.00 | 59 | 1021.1 |
| 20260505111500 | 54 | 273 | 9.0 | 11.0 | 0.00 | 0.00 | 0.00 | 59 | 1021.4 |
| 20260505111001 | 54 | 284 | 6.0 | 11.0 | 0.00 | 0.00 | 0.00 | 61 | 1021.4 |
| 20260505110501 | 54 | 236 | 5.0 | 13.0 | 0.00 | 0.00 | 0.00 | 62 | 1021.4 |
| 20260505101001 | 54 | 252 | 16.0 | 16.0 | 0.00 | 0.00 | 0.00 | 62 | 1021.2 |
| 20260505100459 | 54 | 30 | 8.0 | 13.0 | 0.00 | 0.00 | 0.00 | 62 | 1021.4 |
| 20260505100003 | 54 | 297 | 7.0 | 14.0 | 0.00 | 0.00 | 0.00 | 61 | 1021.4 |
| 20260505095501 | 54 | 331 | 2.0 | 14.0 | 0.00 | 0.00 | 0.00 | 61 | 1021.5 |
| 20260505095001 | 54 | 243 | 1.0 | 13.0 | 0.00 | 0.00 | 0.00 | 60 | 1021.4 |
| 20260505094501 | 54 | 298 | 4.0 | 13.0 | 0.00 | 0.00 | 0.00 | 60 | 1021.4 |
| 20260505093959 | 55 | 334 | 4.0 | 13.0 | 0.00 | 0.00 | 0.00 | 58 | 1021.6 |
| 20260505093500 | 55 | 316 | 1.0 | 16.0 | 0.00 | 0.00 | 0.00 | 56 | 1021.6 |
| 20260505093000 | 55 | 242 | 7.0 | 16.0 | 0.00 | 0.00 | 0.00 | 58 | 1021.5 |
| 20260505092500 | 54 | 279 | 10.0 | 15.0 | 0.00 | 0.00 | 0.00 | 59 | 1021.5 |
| 20260505091001 | 55 | 297 | 4.0 | 14.0 | 0.00 | 0.00 | 0.00 | 60 | 1021.9 |
| 20260505090501 | 55 | 302 | 7.0 | 14.0 | 0.00 | 0.00 | 0.00 | 59 | 1021.6 |
| 20260505090003 | 55 | 24 | 5.0 | 21.0 | 0.00 | 0.00 | 0.00 | 57 | 1021.8 |
| 20260505085500 | 56 | 242 | 4.0 | 21.0 | 0.00 | 0.00 | 0.00 | 53 | 1022.3 |
| 20260505084959 | 56 | 235 | 12.0 | 14.0 | 0.00 | 0.00 | 0.00 | 52 | 1022.3 |
| 20260505084501 | 56 | 150 | 4.0 | 21.0 | 0.00 | 0.00 | 0.00 | 52 | 1021.9 |
| 20260505084000 | 55 | 253 | 6.0 | 21.0 | 0.00 | 0.00 | 0.00 | 53 | 1021.6 |
| 20260505083500 | 55 | 315 | 6.0 | 20.0 | 0.00 | 0.00 | 0.00 | 53 | 1021.6 |
| 20260505083000 | 55 | 304 | 5.0 | 20.0 | 0.00 | 0.00 | 0.00 | 53 | 1021.9 |
| 20260505082500 | 56 | 337 | 4.0 | 13.0 | 0.00 | 0.00 | 0.00 | 53 | 1021.9 |
| 20260505082000 | 56 | 255 | 4.0 | 13.0 | 0.00 | 0.00 | 0.00 | 52 | 1022.2 |
| 20260505081459 | 56 | 284 | 7.0 | 16.0 | 0.00 | 0.00 | 0.00 | 52 | 1022.2 |
| 20260505081001 | 56 | 282 | 9.0 | 16.0 | 0.00 | 0.00 | 0.00 | 52 | 1022.1 |
| 20260505080500 | 56 | 332 | 5.0 | 16.0 | 0.00 | 0.00 | 0.00 | 52 | 1022.2 |
| 20260505075500 | 56 | 285 | 10.0 | 16.0 | 0.00 | 0.00 | 0.00 | 50 | 1022.1 |
| 20260505075000 | 56 | 290 | 10.0 | 15.0 | 0.00 | 0.00 | 0.00 | 49 | 1022.0 |
| 20260505074501 | 56 | 340 | 3.0 | 16.0 | 0.00 | 0.00 | 0.00 | 48 | 1022.3 |
| 20260505074000 | 56 | 268 | 11.0 | 16.0 | 0.00 | 0.00 | 0.00 | 47 | 1022.3 |
| 20260505073500 | 56 | 338 | 7.0 | 16.0 | 0.00 | 0.00 | 0.00 | 47 | 1022.2 |
| 20260505073001 | 57 | 241 | 7.0 | 15.0 | 0.00 | 0.00 | 0.00 | 46 | 1022.6 |
| 20260505072501 | 57 | 188 | 7.0 | 20.0 | 0.00 | 0.00 | 0.00 | 45 | 1022.4 |
| 20260505072000 | 57 | 317 | 11.0 | 15.0 | 0.00 | 0.00 | 0.00 | 45 | 1022.3 |
| 20260505071500 | 57 | 216 | 6.0 | 13.0 | 0.00 | 0.00 | 0.00 | 43 | 1022.2 |
| 20260505071000 | 57 | 283 | 4.0 | 15.0 | 0.00 | 0.00 | 0.00 | 43 | 1022.3 |
| 20260505070500 | 57 | 223 | 6.0 | 16.0 | 0.00 | 0.00 | 0.00 | 41 | 1022.5 |
| 20260505070007 | 57 | 298 | 7.0 | 21.0 | 0.00 | 0.00 | 0.00 | 40 | 1022.5 |
| 20260505065502 | 57 | 281 | 15.0 | 21.0 | 0.00 | 0.00 | 0.00 | 40 | 1022.5 |
| 20260505065003 | 57 | 212 | 1.0 | 16.0 | 0.00 | 0.00 | 0.00 | 40 | 1022.5 |
| 20260505064503 | 57 | 310 | 15.0 | 23.0 | 0.00 | 0.00 | 0.00 | 40 | 1022.6 |
| 20260505063002 | 57 | 314 | 7.0 | 21.0 | 0.00 | 0.00 | 0.00 | 42 | 1022.5 |
| 20260505062502 | 57 | 271 | 6.0 | 21.0 | 0.00 | 0.00 | 0.00 | 41 | 1022.5 |
| 20260505062003 | 57 | 262 | 6.0 | 21.0 | 0.00 | 0.00 | 0.00 | 42 | 1022.8 |
| 20260505061504 | 57 | 186 | 21.0 | 21.0 | 0.00 | 0.00 | 0.00 | 41 | 1022.7 |
| 20260505061003 | 57 | 147 | 5.0 | 15.0 | 0.00 | 0.00 | 0.00 | 42 | 1022.4 |
| 20260505060002 | 57 | 227 | 5.0 | 14.0 | 0.00 | 0.00 | 0.00 | 42 | 1022.8 |
| 20260505055003 | 57 | 261 | 5.0 | 14.0 | 0.00 | 0.00 | 0.00 | 43 | 1022.9 |
| 20260505054502 | 56 | 273 | 3.0 | 12.0 | 0.00 | 0.00 | 0.00 | 45 | 1023.1 |
| 20260505054003 | 56 | 331 | 2.0 | 3.0 | 0.00 | 0.00 | 0.00 | 46 | 1023.2 |
| 20260505053503 | 56 | 122 | 0.0 | 7.0 | 0.00 | 0.00 | 0.00 | 45 | 1023.2 |
| 20260505052503 | 56 | 130 | 0.0 | 4.0 | 0.00 | 0.00 | 0.00 | 48 | 1023.0 |
| 20260505052002 | 56 | 355 | 0.0 | 8.0 | 0.00 | 0.00 | 0.00 | 47 | 1023.1 |
| 20260505051504 | 56 | 355 | 0.0 | 8.0 | 0.00 | 0.00 | 0.00 | 47 | 1023.4 |
| 20260505051002 | 56 | 343 | 2.0 | 7.0 | 0.00 | 0.00 | 0.00 | 48 | 1023.5 |
| 20260505050503 | 56 | 40 | 4.0 | 6.0 | 0.00 | 0.00 | 0.00 | 48 | 1023.7 |
| 20260505041503 | 58 | 302 | 5.0 | 10.0 | 0.00 | 0.00 | 0.00 | 40 | 1024.0 |
| 20260505041003 | 58 | 333 | 1.0 | 10.0 | 0.00 | 0.00 | 0.00 | 40 | 1023.9 |
| 20260505040503 | 58 | 331 | 2.0 | 9.0 | 0.00 | 0.00 | 0.00 | 39 | 1023.7 |
| 20260505040004 | 58 | 329 | 2.0 | 11.0 | 0.00 | 0.00 | 0.00 | 39 | 1023.5 |
| 20260505035503 | 58 | 360 | 3.0 | 11.0 | 0.00 | 0.00 | 0.00 | 38 | 1023.5 |
| 20260505034502 | 59 | 276 | 3.0 | 12.0 | 0.00 | 0.00 | 0.00 | 38 | 1023.5 |
| 20260505034003 | 59 | 51 | 2.0 | 10.0 | 0.00 | 0.00 | 0.00 | 38 | 1023.4 |
| 20260505033502 | 59 | 282 | 5.0 | 10.0 | 0.00 | 0.00 | 0.00 | 38 | 1023.5 |
| 20260505033002 | 59 | 277 | 1.0 | 7.0 | 0.00 | 0.00 | 0.00 | 38 | 1023.4 |
| 20260505032502 | 59 | 287 | 2.0 | 7.0 | 0.00 | 0.00 | 0.00 | 38 | 1023.4 |
| 20260505032003 | 59 | 310 | 4.0 | 8.0 | 0.00 | 0.00 | 0.00 | 38 | 1023.2 |
| 20260505031503 | 59 | 295 | 4.0 | 8.0 | 0.00 | 0.00 | 0.00 | 37 | 1023.2 |
| 20260505031003 | 59 | 211 | 0.0 | 8.0 | 0.00 | 0.00 | 0.00 | 37 | 1023.1 |
| 20260505030502 | 59 | 280 | 8.0 | 9.0 | 0.00 | 0.00 | 0.00 | 37 | 1023.1 |
| 20260505030005 | 60 | 313 | 2.0 | 10.0 | 0.00 | 0.00 | 0.00 | 36 | 1022.9 |
| 20260505025002 | 60 | 34 | 4.0 | 9.0 | 0.00 | 0.00 | 0.00 | 36 | 1022.8 |
| 20260505024502 | 61 | 260 | 1.0 | 13.0 | 0.00 | 0.00 | 0.00 | 35 | 1022.7 |
| 20260505024003 | 61 | 234 | 2.0 | 13.0 | 0.00 | 0.00 | 0.00 | 35 | 1022.7 |
| 20260505022002 | 62 | 291 | 0.0 | 7.0 | 0.00 | 0.00 | 0.00 | 36 | 1022.7 |
| 20260505021502 | 62 | 294 | 1.0 | 7.0 | 0.00 | 0.00 | 0.00 | 36 | 1022.6 |
| 20260505021002 | 62 | 330 | 2.0 | 6.0 | 0.00 | 0.00 | 0.00 | 36 | 1022.5 |
| 20260505020502 | 62 | 322 | 5.0 | 6.0 | 0.00 | 0.00 | 0.00 | 36 | 1022.3 |
| 20260505020006 | 63 | 5 | 2.0 | 5.0 | 0.00 | 0.00 | 0.00 | 35 | 1022.3 |
| 20260505015502 | 63 | 333 | 0.0 | 10.0 | 0.00 | 0.00 | 0.00 | 34 | 1022.3 |
| 20260505015002 | 64 | 323 | 4.0 | 10.0 | 0.00 | 0.00 | 0.00 | 34 | 1022.1 |
| 20260505014001 | 64 | 282 | 4.0 | 10.0 | 0.00 | 0.00 | 0.00 | 32 | 1022.4 |
| 20260505013501 | 64 | 299 | 7.0 | 9.0 | 0.00 | 0.00 | 0.00 | 33 | 1022.3 |
| 20260505013002 | 65 | 304 | 2.0 | 9.0 | 0.00 | 0.00 | 0.00 | 32 | 1022.3 |
| 20260505012501 | 65 | 5 | 1.0 | 10.0 | 0.00 | 0.00 | 0.00 | 33 | 1022.5 |
| 20260505012002 | 65 | 296 | 3.0 | 10.0 | 0.00 | 0.00 | 0.00 | 32 | 1022.4 |
| 20260505011501 | 65 | 339 | 7.0 | 9.0 | 0.00 | 0.00 | 0.00 | 32 | 1022.5 |
| 20260505011001 | 65 | 249 | 1.0 | 9.0 | 0.00 | 0.00 | 0.00 | 31 | 1022.5 |
| 20260505010501 | 66 | 241 | 5.0 | 13.0 | 0.00 | 0.00 | 0.00 | 31 | 1022.5 |
| 20260505005503 | 66 | 258 | 7.0 | 13.0 | 0.00 | 0.00 | 0.00 | 29 | 1022.4 |
| 20260505005001 | 66 | 28 | 10.0 | 18.0 | 0.00 | 0.00 | 0.00 | 28 | 1022.5 |
| 20260505004501 | 67 | 284 | 4.0 | 18.0 | 0.00 | 0.00 | 0.00 | 27 | 1022.5 |
| 20260505004002 | 68 | 316 | 2.0 | 13.0 | 0.00 | 0.00 | 0.00 | 26 | 1022.3 |
| 20260505002503 | 69 | 269 | 7.0 | 11.0 | 0.00 | 0.00 | 0.00 | 23 | 1022.3 |
| 20260505001001 | 69 | 293 | 4.0 | 13.0 | 0.00 | 0.00 | 0.00 | 24 | 1022.3 |
| 20260505000501 | 70 | 360 | 5.0 | 15.0 | 0.00 | 0.00 | 0.00 | 24 | 1022.3 |
| 20260505000005 | 70 | 340 | 7.0 | 15.0 | 0.00 | 0.00 | 0.00 | 23 | 1022.5 |
| 20260504235501 | 70 | 303 | 5.0 | 12.0 | 0.00 | 0.00 | 0.00 | 22 | 1022.3 |
| 20260504235001 | 71 | 313 | 4.0 | 12.0 | 0.00 | 0.00 | 0.00 | 21 | 1022.1 |
| 20260504234502 | 71 | 342 | 7.0 | 12.0 | 0.00 | 0.00 | 0.00 | 21 | 1022.0 |
| 20260504234002 | 71 | 276 | 3.0 | 16.0 | 0.00 | 0.00 | 0.00 | 21 | 1022.0 |
| 20260504233502 | 71 | 338 | 4.0 | 16.0 | 0.00 | 0.00 | 0.00 | 20 | 1022.0 |
| 20260504233002 | 72 | 292 | 10.0 | 11.0 | 0.00 | 0.00 | 0.00 | 20 | 1021.8 |
| 20260504232501 | 71 | 265 | 9.0 | 11.0 | 0.00 | 0.00 | 0.00 | 20 | 1021.7 |
| 20260504232002 | 72 | 330 | 11.0 | 11.0 | 0.00 | 0.00 | 0.00 | 20 | 1021.6 |
| 20260504231501 | 72 | 61 | 4.0 | 12.0 | 0.00 | 0.00 | 0.00 | 19 | 1021.6 |
| 20260504231002 | 72 | 286 | 5.0 | 15.0 | 0.00 | 0.00 | 0.00 | 19 | 1021.6 |
| 20260504230501 | 72 | 299 | 7.0 | 15.0 | 0.00 | 0.00 | 0.00 | 19 | 1021.8 |
| 20260504230005 | 72 | 274 | 9.0 | 22.0 | 0.00 | 0.00 | 0.00 | 19 | 1021.9 |
| 20260504225002 | 73 | 331 | 9.0 | 20.0 | 0.00 | 0.00 | 0.00 | 19 | 1022.1 |
| 20260504224003 | 73 | 169 | 11.0 | 16.0 | 0.00 | 0.00 | 0.00 | 20 | 1022.2 |
| 20260504223501 | 74 | 231 | 7.0 | 12.0 | 0.00 | 0.00 | 0.00 | 20 | 1022.0 |
| 20260504223002 | 74 | 257 | 4.0 | 12.0 | 0.00 | 0.00 | 0.00 | 21 | 1021.9 |
| 20260504222002 | 73 | 282 | 15.0 | 20.0 | 0.00 | 0.00 | 0.00 | 21 | 1022.1 |
| 20260504221002 | 73 | 221 | 19.0 | 27.0 | 0.00 | 0.00 | 0.00 | 21 | 1022.2 |
| 20260504220502 | 73 | 261 | 4.0 | 23.0 | 0.00 | 0.00 | 0.00 | 21 | 1022.2 |
| 20260504220005 | 73 | 247 | 3.0 | 23.0 | 0.00 | 0.00 | 0.00 | 22 | 1022.1 |
| 20260504215501 | 73 | 173 | 9.0 | 22.0 | 0.00 | 0.00 | 0.00 | 21 | 1022.3 |
| 20260504215002 | 74 | 223 | 6.0 | 20.0 | 0.00 | 0.00 | 0.00 | 22 | 1022.2 |
| 20260504214501 | 73 | 240 | 8.0 | 20.0 | 0.00 | 0.00 | 0.00 | 23 | 1022.1 |
| 20260504214002 | 74 | 247 | 13.0 | 16.0 | 0.00 | 0.00 | 0.00 | 23 | 1022.2 |
| 20260504212515 | 74 | 253 | 6.0 | 15.0 | 0.00 | 0.00 | 0.00 | 24 | 1022.3 |
| 20260504212001 | 74 | 288 | 8.0 | 11.0 | 0.00 | 0.00 | 0.00 | 23 | 1022.4 |
| 20260504211509 | 74 | 261 | 6.0 | 18.0 | 0.00 | 0.00 | 0.00 | 24 | 1022.5 |
| 20260504211003 | 73 | 286 | 10.0 | 18.0 | 0.00 | 0.00 | 0.00 | 24 | 1022.5 |
| 20260504210004 | 73 | 229 | 10.0 | 13.0 | 0.00 | 0.00 | 0.00 | 26 | 1022.8 |
| 20260504205501 | 73 | 227 | 7.0 | 21.0 | 0.00 | 0.00 | 0.00 | 25 | 1022.7 |
| 20260504205001 | 74 | 281 | 10.0 | 21.0 | 0.00 | 0.00 | 0.00 | 24 | 1023.2 |
| 20260504204501 | 75 | 225 | 7.0 | 19.0 | 0.00 | 0.00 | 0.00 | 24 | 1023.2 |
| 20260504204001 | 74 | 238 | 3.0 | 19.0 | 0.00 | 0.00 | 0.00 | 24 | 1023.1 |
| 20260504202501 | 74 | 232 | 10.0 | 21.0 | 0.00 | 0.00 | 0.00 | 23 | 1023.2 |
| 20260504202001 | 74 | 227 | 10.0 | 20.0 | 0.00 | 0.00 | 0.00 | 22 | 1023.3 |
| 20260504201501 | 74 | 211 | 15.0 | 20.0 | 0.00 | 0.00 | 0.00 | 22 | 1023.2 |
| 20260504201001 | 73 | 268 | 8.0 | 15.0 | 0.00 | 0.00 | 0.00 | 22 | 1023.1 |
| 20260504195501 | 73 | 241 | 8.0 | 19.0 | 0.00 | 0.00 | 0.00 | 22 | 1023.3 |
| 20260504195001 | 73 | 169 | 9.0 | 19.0 | 0.00 | 0.00 | 0.00 | 23 | 1023.3 |
| 20260504194002 | 73 | 232 | 11.0 | 20.0 | 0.00 | 0.00 | 0.00 | 20 | 1023.5 |
| 20260504193501 | 73 | 176 | 3.0 | 26.0 | 0.00 | 0.00 | 0.00 | 20 | 1023.3 |
| 20260504193002 | 73 | 246 | 14.0 | 26.0 | 0.00 | 0.00 | 0.00 | 20 | 1023.3 |
| 20260504192501 | 73 | 234 | 13.0 | 19.0 | 0.00 | 0.00 | 0.00 | 19 | 1023.5 |
| 20260504192003 | 73 | 267 | 10.0 | 19.0 | 0.00 | 0.00 | 0.00 | 22 | 1023.4 |
| 20260504191501 | 73 | 160 | 12.0 | 21.0 | 0.00 | 0.00 | 0.00 | 21 | 1023.5 |
| 20260504191001 | 73 | 196 | 12.0 | 21.0 | 0.00 | 0.00 | 0.00 | 20 | 1023.7 |
| 20260504190501 | 73 | 194 | 4.0 | 19.0 | 0.00 | 0.00 | 0.00 | 21 | 1023.7 |
| 20260504190010 | 73 | 246 | 9.0 | 22.0 | 0.00 | 0.00 | 0.00 | 20 | 1023.8 |
| 20260504185502 | 72 | 215 | 6.0 | 24.0 | 0.00 | 0.00 | 0.00 | 21 | 1023.8 |
| 20260504185001 | 73 | 183 | 10.0 | 24.0 | 0.00 | 0.00 | 0.00 | 20 | 1023.6 |
| 20260504183501 | 72 | 159 | 14.0 | 22.0 | 0.00 | 0.00 | 0.00 | 20 | 1023.6 |
| 20260504183009 | 73 | 218 | 7.0 | 22.0 | 0.00 | 0.00 | 0.00 | 20 | 1024.0 |
| 20260504182001 | 72 | 227 | 5.0 | 26.0 | 0.00 | 0.00 | 0.00 | 19 | 1024.0 |
| 20260504181501 | 72 | 197 | 8.0 | 18.0 | 0.00 | 0.00 | 0.00 | 19 | 1024.0 |
| 20260504181001 | 72 | 238 | 6.0 | 20.0 | 0.00 | 0.00 | 0.00 | 19 | 1024.1 |
| 20260504180501 | 72 | 286 | 10.0 | 21.0 | 0.00 | 0.00 | 0.00 | 21 | 1023.9 |
| 20260504180005 | 72 | 189 | 4.0 | 22.0 | 0.00 | 0.00 | 0.00 | 21 | 1023.9 |
| 20260504175501 | 72 | 178 | 5.0 | 22.0 | 0.00 | 0.00 | 0.00 | 21 | 1023.8 |
| 20260504175001 | 72 | 145 | 4.0 | 13.0 | 0.00 | 0.00 | 0.00 | 22 | 1023.8 |
| 20260504174501 | 72 | 250 | 2.0 | 16.0 | 0.00 | 0.00 | 0.00 | 21 | 1023.7 |
| 20260504174001 | 72 | 288 | 7.0 | 16.0 | 0.00 | 0.00 | 0.00 | 21 | 1023.9 |
| 20260504173501 | 72 | 242 | 8.0 | 15.0 | 0.00 | 0.00 | 0.00 | 20 | 1024.0 |
| 20260504173001 | 72 | 227 | 4.0 | 13.0 | 0.00 | 0.00 | 0.00 | 22 | 1024.0 |
| 20260504172501 | 71 | 252 | 5.0 | 14.0 | 0.00 | 0.00 | 0.00 | 22 | 1024.0 |
| 20260504172001 | 72 | 197 | 5.0 | 14.0 | 0.00 | 0.00 | 0.00 | 23 | 1024.1 |
| 20260504171501 | 72 | 238 | 7.0 | 16.0 | 0.00 | 0.00 | 0.00 | 24 | 1024.1 |
| 20260504170501 | 71 | 265 | 5.0 | 14.0 | 0.00 | 0.00 | 0.00 | 21 | 1024.1 |
| 20260504150500 | 64 | 198 | 7.0 | 14.0 | 0.00 | 0.00 | 0.00 | 29 | 1024.1 |
| 20260504141000 | 62 | 187 | 7.0 | 18.0 | 0.00 | 0.00 | 0.00 | 29 | 1024.1 |
| 20260504140501 | 61 | 250 | 2.0 | 12.0 | 0.00 | 0.00 | 0.00 | 32 | 1023.8 |